Location: Grand Rapids
(42.9630°N, 85.6680°W)
Time: 03:39:54
(UTC-04:00)

Vanguard 2 Rocket - All Passes

Search period start: 30 May 2024 00:00
Search period end: 09 June 2024 00:00
Orbit: 556 x 3304 km, 32.9° (Epoch: 29 May)

Date Brightness Start Highest point End Pass type
(mag) Time Alt. Az. Time Alt. Az. Time Alt. Az.
30 May - 09:18:57 10° S 09:22:03 12° SSE 09:24:42 10° SE daylight
30 May - 11:29:48 10° SW 11:34:59 22° S 11:38:47 10° ESE daylight
30 May - 13:43:18 10° WSW 13:47:07 23° S 13:50:19 10° SE daylight
30 May - 15:57:53 10° SW 15:58:52 11° SSW 15:59:52 10° S daylight
31 May - 10:26:52 10° SSW 10:32:51 21° SSE 10:37:08 10° ESE daylight
31 May - 12:40:27 10° WSW 12:45:19 26° S 12:48:58 10° SE daylight
31 May - 14:54:35 10° SW 14:57:08 15° SSW 14:59:32 10° SSE daylight
01 Jun - 09:23:58 10° SSW 09:30:30 19° SSE 09:35:13 10° ESE daylight
01 Jun - 11:37:18 10° SW 11:43:24 28° S 11:47:36 10° ESE daylight
01 Jun - 13:51:39 10° WSW 13:55:26 21° SSW 13:58:34 10° SE daylight
02 Jun - 08:21:22 10° SSW 08:27:53 17° SSE 08:32:49 10° ESE daylight
02 Jun - 10:33:54 10° SW 10:41:15 28° S 10:46:08 10° ESE daylight
02 Jun - 12:48:31 10° WSW 12:53:40 27° S 12:57:26 10° SE daylight
02 Jun - 15:04:00 10° SW 15:05:19 11° SSW 15:06:35 10° S daylight
03 Jun - 07:19:35 10° S 07:25:00 14° SSE 07:29:29 10° SE daylight
03 Jun - 09:30:21 10° SW 09:38:53 27° SSE 09:44:30 10° ESE daylight
03 Jun - 11:45:04 10° WSW 11:51:45 32° S 11:56:11 10° ESE daylight
03 Jun - 14:00:11 10° WSW 14:03:39 18° SSW 14:06:31 10° SSE daylight
04 Jun - 08:26:53 10° SSW 08:36:13 24° SSE 08:42:33 10° ESE daylight
04 Jun - 10:41:18 10° WSW 10:49:36 34° S 10:54:50 10° ESE daylight
04 Jun - 12:56:42 10° WSW 13:01:55 26° SSW 13:05:42 10° SE daylight
05 Jun - 07:23:45 10° SSW 07:33:16 21° SSE 07:40:06 10° ESE daylight
05 Jun - 09:37:18 10° SW 09:47:12 34° S 09:53:20 10° ESE daylight
05 Jun - 11:52:59 10° WSW 12:00:02 33° S 12:04:37 10° SE daylight
05 Jun - 14:09:05 10° WSW 14:11:42 14° SSW 14:13:59 10° S daylight
06 Jun - 06:21:25 10° S 06:30:05 17° SSE 06:36:51 10° ESE daylight
06 Jun - 08:33:15 10° SW 08:44:29 32° SSE 08:51:34 10° ESE daylight
06 Jun - 10:48:56 10° WSW 10:57:53 38° S 11:03:21 10° ESE daylight
06 Jun - 13:05:01 10° WSW 13:10:02 23° SSW 13:13:44 10° SSE daylight
07 Jun - 05:20:51 10° SSE 05:26:42 13° SE 05:31:48 10° SE visible
07 Jun - 07:29:23 10° SSW 07:41:27 29° SSE 07:49:29 10° ESE daylight
07 Jun - 09:44:35 10° WSW 09:55:27 40° S 10:01:55 10° ESE daylight
07 Jun - 12:01:00 10° WSW 12:08:11 32° SSW 12:12:53 10° SE daylight
08 Jun - 06:26:00 10° SSW 06:38:10 25° SSE 06:46:51 10° ESE daylight
08 Jun - 08:40:07 10° SW 08:52:41 40° S 09:00:16 10° ESE daylight
08 Jun - 10:56:42 10° WSW 11:06:05 40° S 11:11:44 10° ESE daylight
08 Jun - 13:13:32 10° WSW 13:17:59 18° SSW 13:21:24 10° SSE daylight
